contact:dominique.lefevre@mio.osupytheas.fr, maurice.libes@osupytheas.fr, didier.mallarino@osupytheas.fr
Project:EMSO http://www.emso-fr.org/EMSO-France
Depth: 2436.0 m
Title:EMSO Ligure Ouest : Data MII capteur MICROCAT
DateTime_Computer,Latitude,Longitude,Temperature,Conductivity,Pressure,DateTime_Instrument
DateTime_Computer,Latitude,Longitude,degC,S m-1,dbar,DateTime_Instrument
2020-09-02T00:00:13Z,42.805,6.029,13.2988,4.59994,2470.1,2020-9-02T02:01:04Z
2020-09-02T00:03:18Z,42.805,6.029,13.2978,4.59986,2470.077,2020-9-02T02:04:09Z
2020-09-02T00:06:22Z,42.805,6.029,13.2983,4.59997,2470.077,2020-9-02T02:07:12Z
2020-09-02T00:09:26Z,42.805,6.029,13.2979,4.59992,2470.1,2020-9-02T02:10:16Z
2020-09-02T00:12:29Z,42.805,6.029,13.2980,4.59988,2470.063,2020-9-02T02:13:20Z
2020-09-02T00:15:34Z,42.805,6.029,13.2986,4.59994,2470.063,2020-9-02T02:16:25Z
2020-09-02T00:18:37Z,42.805,6.029,13.2992,4.60015,2470.017,2020-9-02T02:19:28Z
2020-09-02T00:21:38Z,42.805,6.029,13.2979,4.60001,2470.077,2020-9-02T02:22:29Z
2020-09-02T00:24:42Z,42.805,6.029,13.2986,4.59996,2470.04,2020-9-02T02:25:32Z
2020-09-02T00:27:44Z,42.805,6.029,13.2991,4.59993,2470.063,2020-9-02T02:28:34Z
2020-09-02T00:30:47Z,42.805,6.029,13.2979,4.59991,2470.063,2020-9-02T02:31:38Z
2020-09-02T00:33:48Z,42.805,6.029,13.2980,4.59992,2470.063,2020-9-02T02:34:39Z
2020-09-02T00:36:52Z,42.805,6.029,13.2976,4.59988,2470.063,2020-9-02T02:37:42Z
2020-09-02T00:39:56Z,42.805,6.029,13.2976,4.59994,2470.063,2020-9-02T02:40:46Z
2020-09-02T00:42:59Z,42.805,6.029,13.2979,4.59986,2470.063,2020-9-02T02:43:50Z
2020-09-02T00:46:02Z,42.805,6.029,13.2979,4.59996,2470.063,2020-9-02T02:46:53Z
2020-09-02T00:49:06Z,42.805,6.029,13.2976,4.59994,2470.053,2020-9-02T02:49:56Z
2020-09-02T00:52:09Z,42.805,6.029,13.2979,4.59995,2470.04,2020-9-02T02:53:00Z
2020-09-02T00:55:12Z,42.805,6.029,13.2976,4.59993,2470.017,2020-9-02T02:56:03Z
2020-09-02T00:58:14Z,42.805,6.029,13.2979,4.59994,2470.053,2020-9-02T02:59:05Z
2020-09-02T01:01:19Z,42.805,6.029,13.2996,4.60010,2470.04,2020-9-02T03:02:09Z
2020-09-02T01:04:22Z,42.805,6.029,13.2997,4.60001,2470.053,2020-9-02T03:05:12Z
2020-09-02T01:07:24Z,42.805,6.029,13.2978,4.60014,2470.017,2020-9-02T03:08:15Z
2020-09-02T01:10:28Z,42.805,6.029,13.2981,4.59999,2470.053,2020-9-02T03:11:19Z
2020-09-02T01:13:30Z,42.805,6.029,13.2981,4.60016,2470.04,2020-9-02T03:14:20Z
2020-09-02T01:16:34Z,42.805,6.029,13.2990,4.60019,2470.017,2020-9-02T03:17:25Z
2020-09-02T01:19:39Z,42.805,6.029,13.2974,4.59992,2470.017,2020-9-02T03:20:29Z
2020-09-02T01:22:43Z,42.805,6.029,13.2976,4.59990,2470.053,2020-9-02T03:23:33Z
2020-09-02T01:25:44Z,42.805,6.029,13.2979,4.59988,2470.04,2020-9-02T03:26:35Z
2020-09-02T01:28:48Z,42.805,6.029,13.2978,4.59991,2470.017,2020-9-02T03:29:38Z
2020-09-02T01:31:50Z,42.805,6.029,13.2982,4.60026,2470.017,2020-9-02T03:32:41Z
2020-09-02T01:34:51Z,42.805,6.029,13.2979,4.59999,2470.017,2020-9-02T03:35:42Z
2020-09-02T01:37:53Z,42.805,6.029,13.2982,4.60008,2470.017,2020-9-02T03:38:43Z
2020-09-02T01:40:55Z,42.805,6.029,13.2983,4.60003,2470.04,2020-9-02T03:41:45Z
2020-09-02T01:43:58Z,42.805,6.029,13.2979,4.59996,2470.017,2020-9-02T03:44:49Z
2020-09-02T01:47:01Z,42.805,6.029,13.2986,4.60015,2470.017,2020-9-02T03:47:52Z
2020-09-02T01:50:05Z,42.805,6.029,13.2990,4.60010,2470.053,2020-9-02T03:50:55Z
2020-09-02T01:53:08Z,42.805,6.029,13.2988,4.60025,2470.04,2020-9-02T03:53:58Z
2020-09-02T01:56:11Z,42.805,6.029,13.2993,4.60015,2470.04,2020-9-02T03:57:02Z
2020-09-02T01:59:14Z,42.805,6.029,13.2978,4.60019,2470.017,2020-9-02T04:00:05Z
2020-09-02T02:02:18Z,42.805,6.029,13.2979,4.60010,2470.017,2020-9-02T04:03:08Z
2020-09-02T02:05:21Z,42.805,6.029,13.2979,4.60009,2470.03,2020-9-02T04:06:11Z
2020-09-02T02:08:26Z,42.805,6.029,13.2979,4.60002,2470.03,2020-9-02T04:09:16Z
2020-09-02T02:11:29Z,42.805,6.029,13.2983,4.60003,2470.04,2020-9-02T04:12:19Z
2020-09-02T02:14:31Z,42.805,6.029,13.2993,4.60004,2470.04,2020-9-02T04:15:21Z
2020-09-02T02:17:35Z,42.805,6.029,13.2985,4.60011,2470.053,2020-9-02T04:18:25Z
2020-09-02T02:20:36Z,42.805,6.029,13.2991,4.60009,2470.03,2020-9-02T04:21:26Z
2020-09-02T02:23:39Z,42.805,6.029,13.2979,4.59999,2470.017,2020-9-02T04:24:30Z
2020-09-02T02:26:43Z,42.805,6.029,13.2979,4.60011,2470.017,2020-9-02T04:27:33Z
2020-09-02T02:29:46Z,42.805,6.029,13.2985,4.60024,2470.03,2020-9-02T04:30:37Z
2020-09-02T02:32:49Z,42.805,6.029,13.2978,4.60017,2470.053,2020-9-02T04:33:40Z
2020-09-02T02:35:53Z,42.805,6.029,13.2986,4.60012,2470.007,2020-9-02T04:36:43Z
2020-09-02T02:38:58Z,42.805,6.029,13.2977,4.60004,2470.017,2020-9-02T04:39:48Z
2020-09-02T02:42:02Z,42.805,6.029,13.2979,4.59996,2469.993,2020-9-02T04:42:52Z
2020-09-02T02:45:06Z,42.805,6.029,13.2983,4.60003,2470.017,2020-9-02T04:45:56Z
2020-09-02T02:48:10Z,42.805,6.029,13.2992,4.60031,2470.017,2020-9-02T04:49:00Z
2020-09-02T02:51:14Z,42.805,6.029,13.2983,4.60006,2470.017,2020-9-02T04:52:05Z
2020-09-02T02:54:19Z,42.805,6.029,13.2985,4.60003,2470.017,2020-9-02T04:55:09Z
2020-09-02T02:57:20Z,42.805,6.029,13.2980,4.60006,2470.017,2020-9-02T04:58:11Z
2020-09-02T03:00:22Z,42.805,6.029,13.2988,4.60022,2470.017,2020-9-02T05:01:13Z
2020-09-02T03:03:25Z,42.805,6.029,13.2988,4.60003,2470.03,2020-9-02T05:04:16Z
2020-09-02T03:06:26Z,42.805,6.029,13.2983,4.60020,2470.04,2020-9-02T05:07:17Z
2020-09-02T03:09:30Z,42.805,6.029,13.2983,4.60004,2470.03,2020-9-02T05:10:21Z
2020-09-02T03:12:35Z,42.805,6.029,13.2977,4.60010,2470.04,2020-9-02T05:13:25Z
2020-09-02T03:15:38Z,42.805,6.029,13.2987,4.60014,2470.04,2020-9-02T05:16:29Z
2020-09-02T03:18:41Z,42.805,6.029,13.2979,4.60002,2470.063,2020-9-02T05:19:32Z
2020-09-02T03:21:44Z,42.805,6.029,13.2978,4.60006,2470.017,2020-9-02T05:22:35Z
2020-09-02T03:24:47Z,42.805,6.029,13.2989,4.59997,2470.04,2020-9-02T05:25:37Z
2020-09-02T03:27:49Z,42.805,6.029,13.2983,4.59998,2470.017,2020-9-02T05:28:39Z
2020-09-02T03:30:52Z,42.805,6.029,13.2985,4.59997,2470.03,2020-9-02T05:31:42Z
2020-09-02T03:33:53Z,42.805,6.029,13.2985,4.60014,2470.04,2020-9-02T05:34:44Z
2020-09-02T03:36:55Z,42.805,6.029,13.2997,4.60027,2470.017,2020-9-02T05:37:45Z
2020-09-02T03:39:56Z,42.805,6.029,13.2980,4.59991,2470.077,2020-9-02T05:40:47Z
2020-09-02T03:43:01Z,42.805,6.029,13.2990,4.60016,2469.993,2020-9-02T05:43:51Z
2020-09-02T03:46:02Z,42.805,6.029,13.2983,4.60006,2470.04,2020-9-02T05:46:53Z
2020-09-02T03:49:07Z,42.805,6.029,13.2979,4.60003,2470.04,2020-9-02T05:49:57Z
2020-09-02T03:52:10Z,42.805,6.029,13.2983,4.60031,2470.063,2020-9-02T05:53:01Z
2020-09-02T03:55:14Z,42.805,6.029,13.2985,4.60003,2470.053,2020-9-02T05:56:04Z
2020-09-02T03:58:16Z,42.805,6.029,13.2987,4.60021,2470.04,2020-9-02T05:59:06Z
2020-09-02T04:01:20Z,42.805,6.029,13.2981,4.60024,2470.087,2020-9-02T06:02:10Z
2020-09-02T04:04:23Z,42.805,6.029,13.2976,4.60006,2470.087,2020-9-02T06:05:14Z
2020-09-02T04:07:27Z,42.805,6.029,13.2990,4.60009,2470.063,2020-9-02T06:08:17Z
2020-09-02T04:10:29Z,42.805,6.029,13.2991,4.60022,2470.04,2020-9-02T06:11:19Z
2020-09-02T04:13:33Z,42.805,6.029,13.2983,4.60030,2470.087,2020-9-02T06:14:23Z
2020-09-02T04:16:36Z,42.805,6.029,13.2985,4.60037,2470.04,2020-9-02T06:17:27Z
2020-09-02T04:19:40Z,42.805,6.029,13.2983,4.59993,2470.053,2020-9-02T06:20:30Z
2020-09-02T04:22:41Z,42.805,6.029,13.2980,4.60009,2470.063,2020-9-02T06:23:31Z
2020-09-02T04:25:44Z,42.805,6.029,13.2984,4.60026,2470.077,2020-9-02T06:26:35Z
2020-09-02T04:28:48Z,42.805,6.029,13.2998,4.60029,2470.1,2020-9-02T06:29:38Z
2020-09-02T04:31:49Z,42.805,6.029,13.2987,4.60020,2470.063,2020-9-02T06:32:40Z
2020-09-02T04:34:54Z,42.805,6.029,13.2983,4.60017,2470.077,2020-9-02T06:35:44Z
2020-09-02T04:37:57Z,42.805,6.029,13.2996,4.60021,2470.1,2020-9-02T06:38:48Z
2020-09-02T04:41:01Z,42.805,6.029,13.2986,4.60003,2470.077,2020-9-02T06:41:52Z
2020-09-02T04:44:06Z,42.805,6.029,13.2984,4.60014,2470.087,2020-9-02T06:44:57Z
2020-09-02T04:47:10Z,42.805,6.029,13.3003,4.60038,2470.087,2020-9-02T06:48:00Z
2020-09-02T04:50:14Z,42.805,6.029,13.2983,4.60026,2470.1,2020-9-02T06:51:05Z
2020-09-02T04:53:16Z,42.805,6.029,13.2984,4.60031,2470.087,2020-9-02T06:54:06Z
2020-09-02T04:56:19Z,42.805,6.029,13.2999,4.60024,2470.11,2020-9-02T06:57:09Z
2020-09-02T04:59:22Z,42.805,6.029,13.2982,4.60023,2470.11,2020-9-02T07:00:13Z
2020-09-02T05:02:26Z,42.805,6.029,13.2988,4.60005,2470.063,2020-9-02T07:03:16Z
2020-09-02T05:05:29Z,42.805,6.029,13.2982,4.60011,2470.11,2020-9-02T07:06:20Z
2020-09-02T05:08:32Z,42.805,6.029,13.2989,4.60007,2470.087,2020-9-02T07:09:23Z
2020-09-02T05:11:36Z,42.805,6.029,13.2979,4.60021,2470.1,2020-9-02T07:12:27Z
2020-09-02T05:14:39Z,42.805,6.029,13.2989,4.60021,2470.11,2020-9-02T07:15:30Z
2020-09-02T05:17:43Z,42.805,6.029,13.2983,4.60013,2470.11,2020-9-02T07:18:34Z
2020-09-02T05:20:44Z,42.805,6.029,13.2984,4.60004,2470.147,2020-9-02T07:21:35Z
2020-09-02T05:23:48Z,42.805,6.029,13.2985,4.60001,2470.11,2020-9-02T07:24:38Z
2020-09-02T05:26:51Z,42.805,6.029,13.2984,4.59996,2470.133,2020-9-02T07:27:41Z
2020-09-02T05:29:53Z,42.805,6.029,13.2991,4.60016,2470.133,2020-9-02T07:30:44Z
2020-09-02T05:32:58Z,42.805,6.029,13.2984,4.60012,2470.124,2020-9-02T07:33:49Z
2020-09-02T05:35:59Z,42.805,6.029,13.2982,4.60013,2470.147,2020-9-02T07:36:50Z
2020-09-02T05:39:03Z,42.805,6.029,13.2983,4.60020,2470.147,2020-9-02T07:39:53Z
2020-09-02T05:42:06Z,42.805,6.029,13.2990,4.60033,2470.133,2020-9-02T07:42:57Z
2020-09-02T05:45:10Z,42.805,6.029,13.2988,4.60027,2470.133,2020-9-02T07:46:01Z
2020-09-02T05:48:12Z,42.805,6.029,13.2988,4.60018,2470.156,2020-9-02T07:49:02Z
2020-09-02T05:51:13Z,42.805,6.029,13.2982,4.60023,2470.133,2020-9-02T07:52:04Z
2020-09-02T05:54:16Z,42.805,6.029,13.2990,4.60026,2470.133,2020-9-02T07:55:07Z
2020-09-02T05:57:19Z,42.805,6.029,13.2977,4.60007,2470.133,2020-9-02T07:58:10Z
2020-09-02T06:00:23Z,42.805,6.029,13.2986,4.60009,2470.171,2020-9-02T08:01:14Z
2020-09-02T06:03:27Z,42.805,6.029,13.2983,4.60029,2470.133,2020-9-02T08:04:17Z
2020-09-02T06:06:30Z,42.805,6.029,13.2980,4.60024,2470.18,2020-9-02T08:07:20Z
2020-09-02T06:09:34Z,42.805,6.029,13.2980,4.60020,2470.171,2020-9-02T08:10:24Z
2020-09-02T06:12:37Z,42.805,6.029,13.2991,4.60044,2470.171,2020-9-02T08:13:27Z
2020-09-02T06:15:39Z,42.805,6.029,13.2992,4.60034,2470.171,2020-9-02T08:16:30Z
2020-09-02T06:18:44Z,42.805,6.029,13.2986,4.60014,2470.133,2020-9-02T08:19:34Z
2020-09-02T06:21:47Z,42.805,6.029,13.2984,4.60036,2470.156,2020-9-02T08:22:38Z
2020-09-02T06:24:48Z,42.805,6.029,13.2979,4.60012,2470.133,2020-9-02T08:25:39Z
2020-09-02T06:27:52Z,42.805,6.029,13.2989,4.60033,2470.156,2020-9-02T08:28:42Z
2020-09-02T06:30:53Z,42.805,6.029,13.2989,4.60015,2470.171,2020-9-02T08:31:44Z
2020-09-02T06:33:57Z,42.805,6.029,13.2991,4.60026,2470.18,2020-9-02T08:34:47Z
2020-09-02T06:37:00Z,42.805,6.029,13.2983,4.60005,2470.156,2020-9-02T08:37:50Z
2020-09-02T06:40:02Z,42.805,6.029,13.2982,4.60008,2470.171,2020-9-02T08:40:53Z
2020-09-02T06:43:04Z,42.805,6.029,13.2988,4.60031,2470.156,2020-9-02T08:43:54Z
2020-09-02T06:46:07Z,42.805,6.029,13.2991,4.60025,2470.18,2020-9-02T08:46:57Z
2020-09-02T06:49:10Z,42.805,6.029,13.2984,4.60036,2470.133,2020-9-02T08:50:01Z
2020-09-02T06:52:12Z,42.805,6.029,13.2983,4.60042,2470.171,2020-9-02T08:53:03Z
2020-09-02T06:55:17Z,42.805,6.029,13.2980,4.60023,2470.156,2020-9-02T08:56:07Z
2020-09-02T06:58:19Z,42.805,6.029,13.2998,4.60023,2470.18,2020-9-02T08:59:09Z
2020-09-02T07:01:21Z,42.805,6.029,13.2983,4.60010,2470.171,2020-9-02T09:02:11Z
2020-09-02T07:04:24Z,42.805,6.029,13.3002,4.60042,2470.156,2020-9-02T09:05:14Z
2020-09-02T07:07:27Z,42.805,6.029,13.2996,4.60056,2470.171,2020-9-02T09:08:18Z
2020-09-02T07:10:31Z,42.805,6.029,13.2986,4.60049,2470.217,2020-9-02T09:11:21Z
2020-09-02T07:13:35Z,42.805,6.029,13.2989,4.60033,2470.156,2020-9-02T09:14:25Z
2020-09-02T07:16:39Z,42.805,6.029,13.2996,4.60036,2470.217,2020-9-02T09:17:29Z
2020-09-02T07:19:43Z,42.805,6.029,13.2981,4.60042,2470.156,2020-9-02T09:20:34Z
2020-09-02T07:22:45Z,42.805,6.029,13.2985,4.60019,2470.194,2020-9-02T09:23:35Z
2020-09-02T07:25:48Z,42.805,6.029,13.2982,4.60017,2470.133,2020-9-02T09:26:39Z
2020-09-02T07:28:51Z,42.805,6.029,13.2983,4.60014,2470.156,2020-9-02T09:29:42Z
2020-09-02T07:31:54Z,42.805,6.029,13.2987,4.60031,2470.11,2020-9-02T09:32:45Z
2020-09-02T07:34:58Z,42.805,6.029,13.2986,4.60014,2470.217,2020-9-02T09:35:48Z
2020-09-02T07:38:01Z,42.805,6.029,13.2985,4.60017,2470.147,2020-9-02T09:38:52Z
2020-09-02T07:41:05Z,42.805,6.029,13.2989,4.60011,2470.156,2020-9-02T09:41:55Z
2020-09-02T07:44:08Z,42.805,6.029,13.2983,4.60011,2470.156,2020-9-02T09:44:58Z
2020-09-02T07:47:11Z,42.805,6.029,13.2980,4.60014,2470.171,2020-9-02T09:48:02Z
2020-09-02T07:50:15Z,42.805,6.029,13.2980,4.60033,2470.156,2020-9-02T09:51:06Z
2020-09-02T07:53:17Z,42.805,6.029,13.2991,4.60029,2470.156,2020-9-02T09:54:08Z
2020-09-02T07:56:20Z,42.805,6.029,13.2995,4.60026,2470.147,2020-9-02T09:57:11Z
2020-09-02T07:59:25Z,42.805,6.029,13.2982,4.60023,2470.156,2020-9-02T10:00:15Z
2020-09-02T08:02:26Z,42.805,6.029,13.2982,4.60009,2470.133,2020-9-02T10:03:17Z
2020-09-02T08:05:31Z,42.805,6.029,13.2982,4.60021,2470.171,2020-9-02T10:06:21Z
2020-09-02T08:08:35Z,42.805,6.029,13.2986,4.60021,2470.156,2020-9-02T10:09:26Z
2020-09-02T08:11:37Z,42.805,6.029,13.2983,4.60025,2470.171,2020-9-02T10:12:28Z
2020-09-02T08:14:39Z,42.805,6.029,13.2985,4.60021,2470.133,2020-9-02T10:15:30Z
2020-09-02T08:17:43Z,42.805,6.029,13.3010,4.60027,2470.147,2020-9-02T10:18:34Z
2020-09-02T08:20:46Z,42.805,6.029,13.2986,4.60040,2470.156,2020-9-02T10:21:37Z
2020-09-02T08:23:50Z,42.805,6.029,13.2991,4.60036,2470.156,2020-9-02T10:24:41Z
2020-09-02T08:26:54Z,42.805,6.029,13.2990,4.60024,2470.194,2020-9-02T10:27:45Z
2020-09-02T08:29:57Z,42.805,6.029,13.2989,4.60041,2470.18,2020-9-02T10:30:48Z
2020-09-02T08:33:02Z,42.805,6.029,13.2990,4.60020,2470.156,2020-9-02T10:33:53Z
2020-09-02T08:36:06Z,42.805,6.029,13.2991,4.60022,2470.133,2020-9-02T10:36:57Z
2020-09-02T08:39:10Z,42.805,6.029,13.2991,4.60034,2470.18,2020-9-02T10:40:00Z
2020-09-02T08:42:11Z,42.805,6.029,13.2991,4.60028,2470.133,2020-9-02T10:43:02Z
2020-09-02T08:45:15Z,42.805,6.029,13.2993,4.60028,2470.156,2020-9-02T10:46:06Z
2020-09-02T08:48:17Z,42.805,6.029,13.2990,4.60023,2470.156,2020-9-02T10:49:07Z
2020-09-02T08:51:18Z,42.805,6.029,13.2986,4.60023,2470.147,2020-9-02T10:52:09Z
2020-09-02T08:54:20Z,42.805,6.029,13.2996,4.60041,2470.11,2020-9-02T10:55:10Z
2020-09-02T08:57:24Z,42.805,6.029,13.2979,4.60004,2470.133,2020-9-02T10:58:14Z
2020-09-02T09:00:27Z,42.805,6.029,13.3004,4.60012,2470.133,2020-9-02T11:01:18Z
2020-09-02T09:03:29Z,42.805,6.029,13.2986,4.60022,2470.156,2020-9-02T11:04:20Z
2020-09-02T09:06:33Z,42.805,6.029,13.2981,4.60015,2470.171,2020-9-02T11:07:24Z
2020-09-02T09:09:37Z,42.805,6.029,13.2983,4.60028,2470.156,2020-9-02T11:10:28Z
2020-09-02T09:12:40Z,42.805,6.029,13.2986,4.60033,2470.147,2020-9-02T11:13:31Z
2020-09-02T09:15:44Z,42.805,6.029,13.2992,4.60011,2470.147,2020-9-02T11:16:34Z
2020-09-02T09:18:47Z,42.805,6.029,13.2983,4.60019,2470.124,2020-9-02T11:19:38Z
2020-09-02T09:21:50Z,42.805,6.029,13.2982,4.60028,2470.156,2020-9-02T11:22:41Z
2020-09-02T09:24:53Z,42.805,6.029,13.2982,4.60018,2470.133,2020-9-02T11:25:44Z
2020-09-02T09:27:58Z,42.805,6.029,13.2990,4.60014,2470.156,2020-9-02T11:28:49Z
2020-09-02T09:31:00Z,42.805,6.029,13.2979,4.60009,2470.147,2020-9-02T11:31:51Z
2020-09-02T09:34:04Z,42.805,6.029,13.2979,4.60019,2470.11,2020-9-02T11:34:55Z
2020-09-02T09:37:08Z,42.805,6.029,13.2982,4.60016,2470.133,2020-9-02T11:37:58Z
2020-09-02T09:40:11Z,42.805,6.029,13.2987,4.60011,2470.147,2020-9-02T11:41:02Z
2020-09-02T09:43:16Z,42.805,6.029,13.2988,4.60010,2470.077,2020-9-02T11:44:06Z
2020-09-02T09:46:17Z,42.805,6.029,13.2981,4.60020,2470.124,2020-9-02T11:47:08Z
2020-09-02T09:49:21Z,42.805,6.029,13.2989,4.60025,2470.133,2020-9-02T11:50:11Z
2020-09-02T09:52:25Z,42.805,6.029,13.2990,4.60019,2470.11,2020-9-02T11:53:16Z
2020-09-02T09:55:27Z,42.805,6.029,13.2988,4.60026,2470.11,2020-9-02T11:56:17Z
2020-09-02T09:58:28Z,42.805,6.029,13.2983,4.60001,2470.133,2020-9-02T11:59:19Z
2020-09-02T10:01:32Z,42.805,6.029,13.2980,4.60010,2470.124,2020-9-02T12:02:22Z
2020-09-02T10:04:36Z,42.805,6.029,13.2991,4.60021,2470.133,2020-9-02T12:05:26Z
2020-09-02T10:07:39Z,42.805,6.029,13.2979,4.60028,2470.11,2020-9-02T12:08:30Z
2020-09-02T10:10:42Z,42.805,6.029,13.2983,4.60025,2470.11,2020-9-02T12:11:33Z
2020-09-02T10:13:44Z,42.805,6.029,13.2981,4.60012,2470.1,2020-9-02T12:14:34Z
2020-09-02T10:16:48Z,42.805,6.029,13.2983,4.60007,2470.133,2020-9-02T12:17:39Z
2020-09-02T10:19:53Z,42.805,6.029,13.2985,4.60020,2470.133,2020-9-02T12:20:43Z
2020-09-02T10:22:56Z,42.805,6.029,13.2993,4.60028,2470.124,2020-9-02T12:23:47Z
2020-09-02T10:26:00Z,42.805,6.029,13.2980,4.60016,2470.063,2020-9-02T12:26:50Z
2020-09-02T10:29:04Z,42.805,6.029,13.2986,4.60028,2470.063,2020-9-02T12:29:55Z
2020-09-02T10:32:09Z,42.805,6.029,13.2990,4.60014,2470.087,2020-9-02T12:33:00Z
2020-09-02T10:35:11Z,42.805,6.029,13.2983,4.60003,2470.063,2020-9-02T12:36:02Z
2020-09-02T10:38:16Z,42.805,6.029,13.2988,4.60003,2470.063,2020-9-02T12:39:07Z
2020-09-02T10:41:20Z,42.805,6.029,13.2976,4.60009,2470.063,2020-9-02T12:42:11Z
2020-09-02T10:44:23Z,42.805,6.029,13.2982,4.59987,2470.063,2020-9-02T12:45:14Z
2020-09-02T10:47:27Z,42.805,6.029,13.2986,4.59991,2470.1,2020-9-02T12:48:18Z
2020-09-02T10:50:32Z,42.805,6.029,13.2976,4.59999,2470.063,2020-9-02T12:51:22Z
2020-09-02T10:53:34Z,42.805,6.029,13.2984,4.60002,2470.063,2020-9-02T12:54:25Z
2020-09-02T10:56:37Z,42.805,6.029,13.2987,4.60011,2470.077,2020-9-02T12:57:28Z
2020-09-02T10:59:42Z,42.805,6.029,13.2986,4.60014,2470.063,2020-9-02T13:00:33Z
2020-09-02T11:02:43Z,42.805,6.029,13.2982,4.60005,2470.077,2020-9-02T13:03:34Z
2020-09-02T11:05:47Z,42.805,6.029,13.2991,4.60007,2470.063,2020-9-02T13:06:38Z
2020-09-02T11:08:52Z,42.805,6.029,13.2986,4.60019,2470.04,2020-9-02T13:09:42Z
2020-09-02T11:11:56Z,42.805,6.029,13.2988,4.60021,2470.077,2020-9-02T13:12:47Z
2020-09-02T11:15:00Z,42.805,6.029,13.3004,4.60035,2470.053,2020-9-02T13:15:51Z
2020-09-02T11:18:04Z,42.805,6.029,13.3001,4.60014,2470.063,2020-9-02T13:18:54Z
2020-09-02T11:21:07Z,42.805,6.029,13.3000,4.59996,2470.04,2020-9-02T13:21:58Z
2020-09-02T11:24:10Z,42.805,6.029,13.2984,4.60022,2470.077,2020-9-02T13:25:01Z
2020-09-02T11:27:14Z,42.805,6.029,13.2981,4.60003,2470.063,2020-9-02T13:28:05Z
2020-09-02T11:30:18Z,42.805,6.029,13.2976,4.60008,2470.017,2020-9-02T13:31:09Z
2020-09-02T11:33:21Z,42.805,6.029,13.2980,4.60006,2470.04,2020-9-02T13:34:12Z
2020-09-02T11:36:24Z,42.805,6.029,13.2982,4.60027,2470.063,2020-9-02T13:37:14Z
2020-09-02T11:39:27Z,42.805,6.029,13.2997,4.60003,2470.077,2020-9-02T13:40:18Z
2020-09-02T11:42:31Z,42.805,6.029,13.2976,4.59999,2470.04,2020-9-02T13:43:21Z
2020-09-02T11:45:34Z,42.805,6.029,13.2989,4.59992,2470.007,2020-9-02T13:46:25Z
2020-09-02T11:48:38Z,42.805,6.029,13.2986,4.60011,2470.04,2020-9-02T13:49:28Z
2020-09-02T11:51:41Z,42.805,6.029,13.2982,4.60005,2470.017,2020-9-02T13:52:32Z
2020-09-02T11:54:44Z,42.805,6.029,13.2980,4.60011,2470.04,2020-9-02T13:55:35Z
2020-09-02T11:57:49Z,42.805,6.029,13.2984,4.60009,2470.077,2020-9-02T13:58:40Z
2020-09-02T12:00:52Z,42.805,6.029,13.2990,4.60003,2470.04,2020-9-02T14:01:43Z
2020-09-02T12:03:56Z,42.805,6.029,13.2986,4.60003,2470.03,2020-9-02T14:04:47Z
2020-09-02T12:06:59Z,42.805,6.029,13.2979,4.59999,2470.007,2020-9-02T14:07:50Z
2020-09-02T12:10:03Z,42.805,6.029,13.2985,4.60016,2470.017,2020-9-02T14:10:54Z
2020-09-02T12:13:06Z,42.805,6.029,13.2984,4.60001,2470.04,2020-9-02T14:13:57Z
2020-09-02T12:16:09Z,42.805,6.029,13.2986,4.60009,2470.04,2020-9-02T14:17:00Z
2020-09-02T12:19:13Z,42.805,6.029,13.2984,4.60009,2470.04,2020-9-02T14:20:04Z
2020-09-02T12:22:16Z,42.805,6.029,13.2986,4.60021,2470.03,2020-9-02T14:23:07Z
2020-09-02T12:25:19Z,42.805,6.029,13.2984,4.60014,2470.04,2020-9-02T14:26:10Z
2020-09-02T12:28:20Z,42.805,6.029,13.2981,4.59996,2470.007,2020-9-02T14:29:11Z
2020-09-02T12:31:24Z,42.805,6.029,13.2978,4.59989,2470.03,2020-9-02T14:32:15Z
2020-09-02T12:34:27Z,42.805,6.029,13.2983,4.60003,2469.993,2020-9-02T14:35:18Z
2020-09-02T12:37:32Z,42.805,6.029,13.2981,4.60020,2470.007,2020-9-02T14:38:22Z
2020-09-02T12:40:34Z,42.805,6.029,13.2984,4.60024,2470.04,2020-9-02T14:41:24Z
2020-09-02T12:43:35Z,42.805,6.029,13.2983,4.60028,2470.03,2020-9-02T14:44:26Z
2020-09-02T12:46:36Z,42.805,6.029,13.2993,4.60014,2470.053,2020-9-02T14:47:27Z
2020-09-02T12:49:37Z,42.805,6.029,13.2990,4.59996,2470.007,2020-9-02T14:50:28Z
2020-09-02T12:52:39Z,42.805,6.029,13.2984,4.60007,2470.017,2020-9-02T14:53:30Z
2020-09-02T12:55:43Z,42.805,6.029,13.2986,4.60021,2469.947,2020-9-02T14:56:33Z
2020-09-02T12:58:45Z,42.805,6.029,13.2986,4.60016,2469.993,2020-9-02T14:59:35Z
2020-09-02T13:01:46Z,42.805,6.029,13.2991,4.60020,2470.04,2020-9-02T15:02:37Z
2020-09-02T13:04:51Z,42.805,6.029,13.2991,4.60009,2470.003,2020-9-02T15:05:41Z
2020-09-02T13:07:55Z,42.805,6.029,13.2976,4.60005,2470.04,2020-9-02T15:08:46Z
2020-09-02T13:10:59Z,42.805,6.029,13.2983,4.60013,2469.97,2020-9-02T15:11:49Z
2020-09-02T13:14:02Z,42.805,6.029,13.2983,4.60005,2470.03,2020-9-02T15:14:53Z
2020-09-02T13:17:06Z,42.805,6.029,13.2984,4.60010,2470.03,2020-9-02T15:17:56Z
2020-09-02T13:20:10Z,42.805,6.029,13.2978,4.59994,2470.007,2020-9-02T15:21:01Z
2020-09-02T13:23:15Z,42.805,6.029,13.2987,4.59998,2470.04,2020-9-02T15:24:06Z
2020-09-02T13:26:20Z,42.805,6.029,13.2989,4.60011,2469.984,2020-9-02T15:27:11Z
2020-09-02T13:29:23Z,42.805,6.029,13.2979,4.59999,2470.017,2020-9-02T15:30:14Z
2020-09-02T13:32:27Z,42.805,6.029,13.2975,4.59984,2470.03,2020-9-02T15:33:18Z
2020-09-02T13:35:28Z,42.805,6.029,13.2993,4.59993,2470.053,2020-9-02T15:36:19Z
2020-09-02T13:38:30Z,42.805,6.029,13.2977,4.59988,2470.04,2020-9-02T15:39:21Z
2020-09-02T13:41:34Z,42.805,6.029,13.2980,4.60010,2470.03,2020-9-02T15:42:24Z
2020-09-02T13:44:35Z,42.805,6.029,13.2984,4.60001,2470.03,2020-9-02T15:45:26Z
2020-09-02T13:47:37Z,42.805,6.029,13.2986,4.60009,2469.993,2020-9-02T15:48:28Z
2020-09-02T13:50:38Z,42.805,6.029,13.2980,4.59997,2470.053,2020-9-02T15:51:29Z
2020-09-02T13:53:42Z,42.805,6.029,13.2986,4.59999,2470.03,2020-9-02T15:54:33Z
2020-09-02T13:56:46Z,42.805,6.029,13.2979,4.59999,2470.017,2020-9-02T15:57:37Z
2020-09-02T13:59:50Z,42.805,6.029,13.2986,4.60009,2470.053,2020-9-02T16:00:41Z
2020-09-02T14:02:53Z,42.805,6.029,13.2977,4.60005,2470.017,2020-9-02T16:03:44Z
2020-09-02T14:05:56Z,42.805,6.029,13.2976,4.60001,2469.993,2020-9-02T16:06:46Z
2020-09-02T14:08:59Z,42.805,6.029,13.2981,4.59999,2469.993,2020-9-02T16:09:50Z
2020-09-02T14:12:02Z,42.805,6.029,13.2984,4.60000,2470.017,2020-9-02T16:12:53Z
2020-09-02T14:15:06Z,42.805,6.029,13.2982,4.60004,2470.03,2020-9-02T16:15:56Z
2020-09-02T14:18:09Z,42.805,6.029,13.2983,4.60015,2470.04,2020-9-02T16:18:59Z
2020-09-02T14:21:11Z,42.805,6.029,13.2988,4.60011,2469.993,2020-9-02T16:22:01Z
2020-09-02T14:24:15Z,42.805,6.029,13.2985,4.59991,2470.03,2020-9-02T16:25:05Z
2020-09-02T14:27:18Z,42.805,6.029,13.2990,4.60003,2469.984,2020-9-02T16:28:08Z
2020-09-02T14:30:21Z,42.805,6.029,13.2982,4.60009,2470.007,2020-9-02T16:31:12Z
2020-09-02T14:33:26Z,42.805,6.029,13.2987,4.60011,2470.003,2020-9-02T16:34:16Z
2020-09-02T14:36:27Z,42.805,6.029,13.2995,4.60011,2470.077,2020-9-02T16:37:18Z
2020-09-02T14:39:29Z,42.805,6.029,13.2982,4.60002,2469.984,2020-9-02T16:40:19Z
2020-09-02T14:42:31Z,42.805,6.029,13.2979,4.60005,2470.007,2020-9-02T16:43:22Z
2020-09-02T14:45:34Z,42.805,6.029,13.2991,4.60009,2470.017,2020-9-02T16:46:24Z
2020-09-02T14:48:37Z,42.805,6.029,13.2979,4.59999,2470.063,2020-9-02T16:49:28Z
2020-09-02T14:51:40Z,42.805,6.029,13.2987,4.60014,2470.04,2020-9-02T16:52:30Z
2020-09-02T14:54:42Z,42.805,6.029,13.2986,4.59999,2470.03,2020-9-02T16:55:33Z
2020-09-02T14:57:44Z,42.805,6.029,13.2985,4.60014,2470.04,2020-9-02T16:58:34Z
2020-09-02T15:00:48Z,42.805,6.029,13.2984,4.60014,2470.03,2020-9-02T17:01:39Z
2020-09-02T15:03:51Z,42.805,6.029,13.2978,4.60009,2470.017,2020-9-02T17:04:42Z
2020-09-02T15:06:55Z,42.805,6.029,13.2988,4.60001,2470.053,2020-9-02T17:07:46Z
2020-09-02T15:10:00Z,42.805,6.029,13.2983,4.60006,2470.04,2020-9-02T17:10:51Z
2020-09-02T15:13:02Z,42.805,6.029,13.2980,4.60003,2470.053,2020-9-02T17:13:53Z